Regional Weather Roundup
Issued by NWS

Home | Current Version | Previous Version | Graphics & Text | Print | Product List | Glossary On
Versions: 1 2 3 4 5 6 7 8 9 10 11 12 13 14 15 16 17 18 19 20 21 22 23 24 25 26 27 28 29 30 31 32 33 34 35 36 37 38 39 40 41 42 43 44 45 46 47 48 49 50
000
ASUS43 KLMK 240810
RWRKY
KENTUCKY REGIONAL WEATHER ROUNDUP
NATIONAL WEATHER SERVICE LOUISVILLE KY
400 AM EDT TUE APR 24 2018

NOTE "FAIR" INDICATES FEW OR NO CLOUDS BELOW 12,000 FEET
WITH NO SIGNIFICANT WEATHER AND/OR OBSTRUCTIONS TO VISIBILITY.

KYZ001>023-026-027-061>063-070>075-240900-
WESTERN AND SOUTH CENTRAL KENTUCKY

CITY           SKY/WX    TMP DP  RH WIND       PRES   REMARKS
PADUCAH        CLOUDY    55  54  96 CALM      29.90S
HENDERSON      CLOUDY    57  54  89 NE7       29.92S
OWENSBORO      CLOUDY    57  53  86 NE6       29.92S
HOPKINSVILLE   CLOUDY    56  56 100 N6        29.88F
BOWLING GREEN  CLOUDY    55  55 100 CALM      29.90R
GLASGOW        CLOUDY    54  53  97 NE3       29.89S
$$

KYZ024-025-028>034-038-045-046-053-240900-
NORTH CENTRAL KENTUCKY

CITY           SKY/WX    TMP DP  RH WIND       PRES   REMARKS
LOUISVILLE/SDF LGT RAIN  55  53  93 N7        29.93S
LOUISVILLE/LOU LGT RAIN  54  54 100 NE6       29.93F
FORT KNOX      LGT RAIN  54  54 100 NE6       29.92F
$$

KYZ035>037-039>044-047>052-055>060-089>105-240900-
NORTHEAST KENTUCKY

CITY           SKY/WX    TMP DP  RH WIND       PRES   REMARKS
LEXINGTON      LGT RAIN  53  49  86 E12       29.94F
COVINGTON      LGT RAIN  52  49  89 NE9       29.98F
FRANKFORT      LGT RAIN  53  49  86 NE9       29.93F
$$

KYZ054-064>069-076>088-106>120-240900-
SOUTHEAST KENTUCKY

CITY           SKY/WX    TMP DP  RH WIND       PRES   REMARKS
JACKSON        CLOUDY    56  47  71 E3        29.93S
LONDON         LGT RAIN  53  52  96 N7        29.92F
SOMERSET       LGT RAIN  52  52 100 E5        29.93S
MIDDLESBORO    RAIN      53  53  99 CALM      29.91F
MONTICELLO     RAIN      54  53  97 NW6       29.92F
$$





USA.gov is the U.S. government's official web portal to all federal, state and local government web resources and services.